Location: *
(37.5724°S, 58.0067°E)
Time: 11:38:16
(UTC+00:00)

Lacrosse 5 - Pass Details

Date: 22 January 2021
Orbit: 715 x 724 km, 57.0° (Epoch: 22 February)

Event Time Altitude Azimuth Distance (km) Brightness Sun altitude
Exits shadow 21:28:15 - 244° (WSW) 2,605 4.8 -30.7°
Reaches altitude 10° 21:30:03 10° 229° (SW) 2,238 4.6 -30.6°
Maximum altitude 21:32:23 13° 201° (SSW) 2,043 4.7 -30.5°
Drops below altitude 10° 21:34:43 10° 174° (S) 2,244 5.3 -30.3°
Sets 21:38:34 0° 146° (SE) 3,170 6.3 -30.0°
